Time,TemperatureF,DewpointF,PressureIn,WindDirection,WindDirectionDegrees,WindSpeedMPH,WindSpeedGustMPH,Humidity,HourlyPrecipIn,Conditions,Clouds,dailyrainin,SoftwareType,DateUTC
2013-07-14 00:00:00,63.9,52.3,30.00,West,274,0.0,0.0,66,0.00,,---,0.00,VWS V14.01,2013-07-13 22:00:00,
2013-07-14 00:05:00,64.0,52.5,30.00,West,274,0.0,0.0,66,0.00,,---,0.00,VWS V14.01,2013-07-13 22:05:00,
2013-07-14 00:10:00,64.0,52.5,30.00,West,274,0.0,0.0,66,0.00,,---,0.00,VWS V14.01,2013-07-13 22:10:00,
2013-07-14 00:15:00,64.0,52.5,30.00,West,274,0.0,0.0,66,0.00,,---,0.00,VWS V14.01,2013-07-13 22:15:00,
2013-07-14 00:20:00,64.2,52.2,30.00,West,274,0.0,3.1,65,0.00,,---,0.00,VWS V14.01,2013-07-13 22:20:00,
2013-07-14 00:25:00,64.2,52.2,30.00,West,274,0.0,3.6,65,0.00,,---,0.00,VWS V14.01,2013-07-13 22:25:00,
2013-07-14 00:30:00,64.2,52.2,30.00,West,274,0.0,0.0,65,0.00,,---,0.00,VWS V14.01,2013-07-13 22:30:00,
2013-07-14 00:35:00,64.0,52.0,30.00,West,274,0.0,0.0,65,0.00,,---,0.00,VWS V14.01,2013-07-13 22:35:00,
2013-07-14 00:40:00,63.7,51.7,30.00,West,274,0.0,0.0,65,0.00,,---,0.00,VWS V14.01,2013-07-13 22:40:00,
2013-07-14 00:45:00,63.3,51.4,30.00,West,274,0.0,0.0,65,0.00,,---,0.00,VWS V14.01,2013-07-13 22:45:00,
2013-07-14 00:50:00,63.1,51.6,30.00,West,274,0.0,0.0,66,0.00,,---,0.00,VWS V14.01,2013-07-13 22:50:00,
2013-07-14 00:55:00,63.0,51.8,30.00,West,274,0.0,0.0,67,0.00,,---,0.00,VWS V14.01,2013-07-13 22:55:00,
2013-07-14 01:00:00,62.8,51.7,30.00,West,274,0.0,0.0,67,0.00,,---,0.00,VWS V14.01,2013-07-13 23:00:00,
2013-07-14 01:05:00,63.0,51.8,30.00,West,274,0.0,0.0,67,0.00,,---,0.00,VWS V14.01,2013-07-13 23:05:00,
2013-07-14 01:10:00,62.8,51.7,30.00,West,274,0.0,0.0,67,0.00,,---,0.00,VWS V14.01,2013-07-13 23:10:00,
2013-07-14 01:15:00,62.8,51.7,30.00,West,274,0.0,0.0,67,0.00,,---,0.00,VWS V14.01,2013-07-13 23:15:00,
2013-07-14 01:20:00,63.0,51.4,30.00,West,274,0.0,0.0,66,0.00,,---,0.00,VWS V14.01,2013-07-13 23:20:00,
2013-07-14 01:25:00,63.3,51.8,30.00,West,274,0.0,0.0,66,0.00,,---,0.00,VWS V14.01,2013-07-13 23:25:00,
2013-07-14 01:30:00,63.3,51.4,30.00,West,274,0.0,0.0,65,0.00,,---,0.00,VWS V14.01,2013-07-13 23:30:00,
2013-07-14 01:35:00,63.1,50.8,30.00,West,274,0.0,0.0,64,0.00,,---,0.00,VWS V14.01,2013-07-13 23:35:00,
2013-07-14 01:40:00,62.8,50.4,30.00,North,351,3.6,4.5,64,0.00,,---,0.00,VWS V14.01,2013-07-13 23:40:00,
2013-07-14 01:45:00,62.4,50.5,30.00,NNW,342,2.7,3.6,65,0.00,,---,0.00,VWS V14.01,2013-07-13 23:45:00,
2013-07-14 01:50:00,62.4,50.5,30.00,NNW,341,0.0,0.0,65,0.00,,---,0.00,VWS V14.01,2013-07-13 23:50:00,
2013-07-14 01:55:00,62.4,50.5,30.00,NNW,339,0.0,0.0,65,0.00,,---,0.00,VWS V14.01,2013-07-13 23:55:00,
2013-07-14 02:00:00,62.6,50.7,30.00,NNW,339,0.0,0.0,65,0.00,,---,0.00,VWS V14.01,2013-07-14 00:00:00,
2013-07-14 02:05:00,62.4,50.5,30.00,NNW,339,0.0,0.0,65,0.00,,---,0.00,VWS V14.01,2013-07-14 00:05:00,
2013-07-14 02:10:00,62.2,50.3,30.00,NNW,338,3.1,3.1,65,0.00,,---,0.00,VWS V14.01,2013-07-14 00:10:00,
2013-07-14 02:15:00,62.2,50.8,30.00,NNW,338,3.1,3.1,66,0.00,,---,0.00,VWS V14.01,2013-07-14 00:15:00,
2013-07-14 02:20:00,62.4,50.9,30.00,West,272,0.0,4.0,66,0.00,,---,0.00,VWS V14.01,2013-07-14 00:20:00,
2013-07-14 02:25:00,62.8,51.3,30.00,West,278,4.5,5.8,66,0.00,,---,0.00,VWS V14.01,2013-07-14 00:25:00,
2013-07-14 02:30:00,63.0,51.4,30.00,West,280,3.6,4.9,66,0.00,,---,0.00,VWS V14.01,2013-07-14 00:30:00,
2013-07-14 02:35:00,63.1,51.6,30.00,West,280,0.0,0.0,66,0.00,,---,0.00,VWS V14.01,2013-07-14 00:35:00,
2013-07-14 02:40:00,63.0,51.4,30.00,West,280,0.0,2.7,66,0.00,,---,0.00,VWS V14.01,2013-07-14 00:40:00,
2013-07-14 02:45:00,63.1,51.6,30.00,West,280,3.1,3.6,66,0.00,,---,0.00,VWS V14.01,2013-07-14 00:45:00,
2013-07-14 02:50:00,63.3,52.2,30.00,West,279,3.6,5.4,67,0.00,,---,0.00,VWS V14.01,2013-07-14 00:50:00,
2013-07-14 02:55:00,63.5,52.0,30.00,West,279,4.0,4.0,66,0.00,,---,0.00,VWS V14.01,2013-07-14 00:55:00,
2013-07-14 03:00:00,63.7,52.1,29.97,West,279,3.1,4.0,66,0.00,,---,0.00,VWS V14.01,2013-07-14 01:00:00,
2013-07-14 03:05:00,63.5,52.0,29.97,West,279,0.0,0.0,66,0.00,,---,0.00,VWS V14.01,2013-07-14 01:05:00,
2013-07-14 03:10:00,63.3,51.8,29.97,West,279,0.0,0.0,66,0.00,,---,0.00,VWS V14.01,2013-07-14 01:10:00,
2013-07-14 03:15:00,63.0,51.8,29.97,West,279,0.0,0.0,67,0.00,,---,0.00,VWS V14.01,2013-07-14 01:15:00,
2013-07-14 03:20:00,62.6,51.5,29.97,West,279,0.0,0.0,67,0.00,,---,0.00,VWS V14.01,2013-07-14 01:20:00,
2013-07-14 03:25:00,62.6,51.9,29.97,West,279,0.0,0.0,68,0.00,,---,0.00,VWS V14.01,2013-07-14 01:25:00,
2013-07-14 03:30:00,62.4,52.1,29.97,West,279,0.0,0.0,69,0.00,,---,0.00,VWS V14.01,2013-07-14 01:30:00,
2013-07-14 03:35:00,62.6,52.3,29.97,West,279,0.0,0.0,69,0.00,,---,0.00,VWS V14.01,2013-07-14 01:35:00,
2013-07-14 03:40:00,62.4,52.5,29.97,West,279,0.0,0.0,70,0.00,,---,0.00,VWS V14.01,2013-07-14 01:40:00,
2013-07-14 03:45:00,62.1,52.2,29.97,West,279,0.0,0.0,70,0.00,,---,0.00,VWS V14.01,2013-07-14 01:45:00,
2013-07-14 03:50:00,61.9,52.4,29.97,West,279,2.7,4.0,71,0.00,,---,0.00,VWS V14.01,2013-07-14 01:50:00,
2013-07-14 03:55:00,61.9,52.8,29.97,West,279,0.0,3.6,72,0.00,,---,0.00,VWS V14.01,2013-07-14 01:55:00,
2013-07-14 04:00:00,61.7,52.6,29.97,West,279,0.0,0.0,72,0.00,,---,0.00,VWS V14.01,2013-07-14 02:00:00,
2013-07-14 04:05:00,61.7,53.0,29.97,West,279,0.0,0.0,73,0.00,,---,0.00,VWS V14.01,2013-07-14 02:05:00,
2013-07-14 04:10:00,61.5,52.8,29.97,West,279,0.0,0.0,73,0.00,,---,0.00,VWS V14.01,2013-07-14 02:10:00,
2013-07-14 04:15:00,61.3,52.6,29.97,West,279,0.0,0.0,73,0.00,,---,0.00,VWS V14.01,2013-07-14 02:15:00,
2013-07-14 04:20:00,61.2,52.8,29.97,West,279,0.0,0.0,74,0.00,,---,0.00,VWS V14.01,2013-07-14 02:20:00,
2013-07-14 04:25:00,61.3,53.0,29.97,West,279,0.0,0.0,74,0.00,,---,0.00,VWS V14.01,2013-07-14 02:25:00,
2013-07-14 04:30:00,61.3,53.0,29.97,West,279,0.0,0.0,74,0.00,,---,0.00,VWS V14.01,2013-07-14 02:30:00,
2013-07-14 04:35:00,61.3,53.0,29.97,West,279,0.0,0.0,74,0.00,,---,0.00,VWS V14.01,2013-07-14 02:35:00,
2013-07-14 04:40:00,61.2,52.8,29.97,West,279,0.0,0.0,74,0.00,,---,0.00,VWS V14.01,2013-07-14 02:40:00,
2013-07-14 04:45:00,61.2,53.2,29.97,West,279,0.0,0.0,75,0.00,,---,0.00,VWS V14.01,2013-07-14 02:45:00,
2013-07-14 04:50:00,61.2,53.2,29.97,West,279,0.0,0.0,75,0.00,,---,0.00,VWS V14.01,2013-07-14 02:50:00,
2013-07-14 04:55:00,61.2,53.2,29.97,West,279,0.0,0.0,75,0.00,,---,0.00,VWS V14.01,2013-07-14 02:55:00,
2013-07-14 05:00:00,61.0,53.0,29.97,West,279,0.0,0.0,75,0.00,,---,0.00,VWS V14.01,2013-07-14 03:00:00,
2013-07-14 05:05:00,61.0,53.0,29.97,West,279,0.0,0.0,75,0.00,,---,0.00,VWS V14.01,2013-07-14 03:05:00,
2013-07-14 05:10:00,61.0,53.4,29.97,West,279,0.0,0.0,76,0.00,,---,0.00,VWS V14.01,2013-07-14 03:10:00,
2013-07-14 05:15:00,61.2,53.5,29.97,West,279,0.0,0.0,76,0.00,,---,0.00,VWS V14.01,2013-07-14 03:15:00,
2013-07-14 05:20:00,61.3,53.7,29.97,West,279,0.0,0.0,76,0.00,,---,0.00,VWS V14.01,2013-07-14 03:20:00,
2013-07-14 05:25:00,61.5,53.5,29.97,West,279,0.0,0.0,75,0.00,,---,0.00,VWS V14.01,2013-07-14 03:25:00,
2013-07-14 05:30:00,61.7,53.7,29.97,West,279,0.0,0.0,75,0.00,,---,0.00,VWS V14.01,2013-07-14 03:30:00,
2013-07-14 05:35:00,61.9,53.5,29.97,West,279,0.0,0.0,74,0.00,,---,0.00,VWS V14.01,2013-07-14 03:35:00,
2013-07-14 05:40:00,62.2,53.9,29.97,West,279,0.0,0.0,74,0.00,,---,0.00,VWS V14.01,2013-07-14 03:40:00,
2013-07-14 05:45:00,62.8,54.0,29.97,West,279,0.0,0.0,73,0.00,,---,0.00,VWS V14.01,2013-07-14 03:45:00,
2013-07-14 05:50:00,63.0,53.8,29.97,West,279,0.0,0.0,72,0.00,,---,0.00,VWS V14.01,2013-07-14 03:50:00,
2013-07-14 05:55:00,63.0,53.4,29.97,West,279,0.0,0.0,71,0.00,,---,0.00,VWS V14.01,2013-07-14 03:55:00,
2013-07-14 06:00:00,63.1,53.6,29.97,West,279,0.0,0.0,71,0.00,,---,0.00,VWS V14.01,2013-07-14 04:00:00,
2013-07-14 06:01:00,63.1,53.6,29.97,West,279,0.0,0.0,71,0.00,,---,0.00,VWS V14.01,2013-07-14 04:01:00,
2013-07-14 06:06:00,63.5,53.9,29.97,West,279,0.0,0.0,71,0.00,,---,0.00,VWS V14.01,2013-07-14 04:06:00,
2013-07-14 06:11:00,64.0,54.1,29.97,West,279,0.0,0.0,70,0.00,,---,0.00,VWS V14.01,2013-07-14 04:11:00,
2013-07-14 06:16:00,64.4,54.0,29.97,West,279,0.0,0.0,69,0.00,,---,0.00,VWS V14.01,2013-07-14 04:16:00,
2013-07-14 06:21:00,65.1,54.7,29.97,West,279,0.0,3.1,69,0.00,,---,0.00,VWS V14.01,2013-07-14 04:21:00,
2013-07-14 06:26:00,66.7,55.8,29.97,West,279,3.6,3.6,68,0.00,,---,0.00,VWS V14.01,2013-07-14 04:26:00,
2013-07-14 06:31:00,67.5,55.3,29.97,West,279,0.0,0.0,65,0.00,,---,0.00,VWS V14.01,2013-07-14 04:31:00,
2013-07-14 06:36:00,68.0,55.0,29.97,West,279,0.0,2.7,63,0.00,,---,0.00,VWS V14.01,2013-07-14 04:36:00,
2013-07-14 06:41:00,68.4,54.0,29.97,SSE,148,4.5,5.4,60,0.00,,---,0.00,VWS V14.01,2013-07-14 04:41:00,
2013-07-14 06:46:00,69.1,54.2,29.97,NW,309,4.0,6.9,59,0.00,,---,0.00,VWS V14.01,2013-07-14 04:46:00,
2013-07-14 06:51:00,70.2,54.2,29.97,SSW,193,2.7,8.7,57,0.00,,---,0.00,VWS V14.01,2013-07-14 04:51:00,
2013-07-14 06:56:00,70.5,53.6,29.97,West,275,6.9,7.4,55,0.00,,---,0.00,VWS V14.01,2013-07-14 04:56:00,
2013-07-14 07:01:00,70.9,52.9,29.97,SE,145,4.5,5.8,53,0.00,,---,0.00,VWS V14.01,2013-07-14 05:01:00,
2013-07-14 07:06:00,70.9,52.9,29.97,South,177,4.0,6.7,53,0.00,,---,0.00,VWS V14.01,2013-07-14 05:06:00,
2013-07-14 07:11:00,71.6,53.1,29.97,WNW,295,5.8,11.0,52,0.00,,---,0.00,VWS V14.01,2013-07-14 05:11:00,
2013-07-14 07:16:00,71.6,52.0,29.97,West,270,8.3,9.6,50,0.00,,---,0.00,VWS V14.01,2013-07-14 05:16:00,
2013-07-14 07:21:00,71.6,51.5,29.97,WNW,282,8.7,11.6,49,0.00,,---,0.00,VWS V14.01,2013-07-14 05:21:00,
2013-07-14 07:26:00,72.3,52.1,29.97,West,270,9.2,9.2,49,0.00,,---,0.00,VWS V14.01,2013-07-14 05:26:00,
2013-07-14 07:31:00,72.9,52.0,29.97,WNW,283,9.2,9.2,48,0.00,,---,0.00,VWS V14.01,2013-07-14 05:31:00,
2013-07-14 07:36:00,73.6,52.1,29.97,WNW,284,7.8,8.3,47,0.00,,---,0.00,VWS V14.01,2013-07-14 05:36:00,
2013-07-14 07:41:00,73.6,51.0,29.97,WNW,288,8.7,10.1,45,0.00,,---,0.00,VWS V14.01,2013-07-14 05:41:00,
2013-07-14 07:46:00,74.3,51.6,29.97,WNW,286,4.9,6.9,45,0.00,,---,0.00,VWS V14.01,2013-07-14 05:46:00,
2013-07-14 07:51:00,74.5,51.2,29.97,West,269,6.9,9.2,44,0.00,,---,0.00,VWS V14.01,2013-07-14 05:51:00,
2013-07-14 07:56:00,75.2,51.8,30.00,SSE,153,5.4,6.7,44,0.00,,---,0.00,VWS V14.01,2013-07-14 05:56:00,
2013-07-14 08:01:00,75.2,51.2,30.00,West,281,15.4,15.9,43,0.00,,---,0.00,VWS V14.01,2013-07-14 06:01:00,
2013-07-14 08:06:00,75.4,50.7,30.00,West,271,12.1,15.2,42,0.00,,---,0.00,VWS V14.01,2013-07-14 06:06:00,
2013-07-14 08:11:00,75.9,51.2,29.97,West,265,9.2,11.6,42,0.00,,---,0.00,VWS V14.01,2013-07-14 06:11:00,
2013-07-14 08:16:00,76.3,50.9,29.97,West,269,11.0,11.2,41,0.00,,---,0.00,VWS V14.01,2013-07-14 06:16:00,
2013-07-14 08:21:00,76.6,50.5,29.97,West,273,7.4,8.7,40,0.00,,---,0.00,VWS V14.01,2013-07-14 06:21:00,
2013-07-14 08:26:00,76.6,49.8,30.00,WNW,283,14.8,14.8,39,0.00,,---,0.00,VWS V14.01,2013-07-14 06:26:00,
2013-07-14 08:31:00,76.8,49.3,30.00,WNW,291,12.1,12.5,38,0.00,,---,0.00,VWS V14.01,2013-07-14 06:31:00,
2013-07-14 08:36:00,77.5,49.2,30.00,West,272,10.1,10.5,37,0.00,,---,0.00,VWS V14.01,2013-07-14 06:36:00,
2013-07-14 08:41:00,77.9,48.8,30.00,West,274,8.3,11.6,36,0.00,,---,0.00,VWS V14.01,2013-07-14 06:41:00,
2013-07-14 08:46:00,77.9,48.8,30.00,West,277,13.0,13.0,36,0.00,,---,0.00,VWS V14.01,2013-07-14 06:46:00,
2013-07-14 08:51:00,78.4,47.8,30.00,West,276,11.2,12.5,34,0.00,,---,0.00,VWS V14.01,2013-07-14 06:51:00,
2013-07-14 08:56:00,78.4,47.8,30.00,WNW,286,11.0,12.5,34,0.00,,---,0.00,VWS V14.01,2013-07-14 06:56:00,
2013-07-14 09:01:00,78.1,47.5,30.00,WNW,288,17.2,17.7,34,0.00,,---,0.00,VWS V14.01,2013-07-14 07:01:00,
2013-07-14 09:06:00,78.1,46.7,30.00,West,277,13.4,14.3,33,0.00,,---,0.00,VWS V14.01,2013-07-14 07:06:00,
2013-07-14 09:11:00,77.7,47.1,30.00,WNW,284,14.8,18.1,34,0.00,,---,0.00,VWS V14.01,2013-07-14 07:11:00,
2013-07-14 09:16:00,77.5,46.2,30.00,WNW,286,12.1,15.2,33,0.00,,---,0.00,VWS V14.01,2013-07-14 07:16:00,
2013-07-14 09:21:00,77.2,46.7,30.00,WNW,289,11.6,13.4,34,0.00,,---,0.00,VWS V14.01,2013-07-14 07:21:00,
2013-07-14 09:26:00,77.7,47.9,30.00,West,271,10.5,12.1,35,0.00,,---,0.00,VWS V14.01,2013-07-14 07:26:00,
2013-07-14 09:31:00,78.1,47.5,30.00,West,281,8.3,10.5,34,0.00,,---,0.00,VWS V14.01,2013-07-14 07:31:00,
2013-07-14 09:36:00,78.6,48.7,30.00,WNW,286,6.9,9.6,35,0.00,,---,0.00,VWS V14.01,2013-07-14 07:36:00,
2013-07-14 09:41:00,78.4,47.8,30.00,West,271,9.2,9.2,34,0.00,,---,0.00,VWS V14.01,2013-07-14 07:41:00,
2013-07-14 09:46:00,78.8,48.1,30.00,West,278,10.5,11.2,34,0.00,,---,0.00,VWS V14.01,2013-07-14 07:46:00,
2013-07-14 09:51:00,79.2,47.6,30.00,West,272,4.0,7.8,33,0.00,,---,0.00,VWS V14.01,2013-07-14 07:51:00,
2013-07-14 09:56:00,79.0,47.5,30.00,WNW,291,7.8,10.1,33,0.00,,---,0.00,VWS V14.01,2013-07-14 07:56:00,
2013-07-14 10:01:00,79.2,47.6,30.00,West,280,11.2,11.2,33,0.00,,---,0.00,VWS V14.01,2013-07-14 08:01:00,
2013-07-14 10:06:00,79.7,47.3,30.00,WNW,294,12.1,15.9,32,0.00,,---,0.00,VWS V14.01,2013-07-14 08:06:00,
2013-07-14 10:11:00,79.5,47.1,30.00,West,274,10.1,12.1,32,0.00,,---,0.00,VWS V14.01,2013-07-14 08:11:00,
2013-07-14 10:16:00,79.9,47.4,30.00,WNW,283,13.0,16.8,32,0.00,,---,0.00,VWS V14.01,2013-07-14 08:16:00,
2013-07-14 10:21:00,79.7,46.4,30.00,West,274,16.3,17.7,31,0.00,,---,0.00,VWS V14.01,2013-07-14 08:21:00,
2013-07-14 10:26:00,79.3,46.1,30.00,NW,311,15.9,15.9,31,0.00,,---,0.00,VWS V14.01,2013-07-14 08:26:00,
2013-07-14 10:31:00,78.8,45.6,30.00,West,268,11.2,16.8,31,0.00,,---,0.00,VWS V14.01,2013-07-14 08:31:00,
2013-07-14 10:36:00,78.8,45.6,30.00,WNW,290,15.2,21.5,31,0.00,,---,0.00,VWS V14.01,2013-07-14 08:36:00,
2013-07-14 10:41:00,78.8,45.6,29.97,WNW,300,14.8,19.9,31,0.00,,---,0.00,VWS V14.01,2013-07-14 08:41:00,
2013-07-14 10:46:00,78.8,45.6,29.97,West,267,13.0,16.3,31,0.00,,---,0.00,VWS V14.01,2013-07-14 08:46:00,
2013-07-14 10:51:00,79.2,46.0,29.97,WNW,296,14.8,17.2,31,0.00,,---,0.00,VWS V14.01,2013-07-14 08:51:00,
2013-07-14 10:56:00,79.3,46.1,29.97,WNW,291,12.1,17.7,31,0.00,,---,0.00,VWS V14.01,2013-07-14 08:56:00,
2013-07-14 11:01:00,79.5,45.4,29.97,WNW,284,13.4,15.4,30,0.00,,---,0.00,VWS V14.01,2013-07-14 09:01:00,
2013-07-14 11:06:00,79.9,45.7,29.97,WNW,282,13.0,15.4,30,0.00,,---,0.00,VWS V14.01,2013-07-14 09:06:00,
2013-07-14 11:11:00,79.7,45.6,29.97,West,275,5.4,13.9,30,0.00,,---,0.00,VWS V14.01,2013-07-14 09:11:00,
2013-07-14 11:17:00,79.7,45.6,29.97,West,281,17.7,17.7,30,0.00,,---,0.00,VWS V14.01,2013-07-14 09:17:00,
2013-07-14 11:22:00,79.5,45.4,29.97,WNW,286,11.0,16.3,30,0.00,,---,0.00,VWS V14.01,2013-07-14 09:22:00,
2013-07-14 11:27:00,79.7,45.6,29.97,WNW,294,9.6,14.3,30,0.00,,---,0.00,VWS V14.01,2013-07-14 09:27:00,
2013-07-14 11:31:00,79.3,45.2,29.97,NW,317,5.8,11.6,30,0.00,,---,0.00,VWS V14.01,2013-07-14 09:31:00,
2013-07-14 11:37:00,79.2,45.1,29.97,WNW,290,9.6,17.2,30,0.00,,---,0.00,VWS V14.01,2013-07-14 09:37:00,
2013-07-14 11:42:00,78.8,44.8,29.97,WNW,295,8.7,10.1,30,0.00,,---,0.00,VWS V14.01,2013-07-14 09:42:00,
2013-07-14 11:47:00,78.8,44.8,29.97,West,275,8.3,11.2,30,0.00,,---,0.00,VWS V14.01,2013-07-14 09:47:00,
2013-07-14 11:52:00,79.2,45.1,29.97,WNW,289,9.6,15.2,30,0.00,,---,0.00,VWS V14.01,2013-07-14 09:52:00,
2013-07-14 11:57:00,79.3,45.2,29.97,West,279,6.9,15.4,30,0.00,,---,0.00,VWS V14.01,2013-07-14 09:57:00,
2013-07-14 12:02:00,79.2,45.1,29.97,WSW,243,4.5,14.8,30,0.00,,---,0.00,VWS V14.01,2013-07-14 10:02:00,
2013-07-14 12:07:00,79.2,45.1,29.97,West,266,12.1,13.9,30,0.00,,---,0.00,VWS V14.01,2013-07-14 10:07:00,
2013-07-14 12:11:00,79.3,45.2,29.97,WNW,303,13.9,13.9,30,0.00,,---,0.00,VWS V14.01,2013-07-14 10:11:00,
2013-07-14 12:16:00,79.2,45.1,29.97,WNW,292,7.8,11.2,30,0.00,,---,0.00,VWS V14.01,2013-07-14 10:16:00,
2013-07-14 12:21:00,79.2,45.1,29.97,West,276,10.5,12.5,30,0.00,,---,0.00,VWS V14.01,2013-07-14 10:21:00,
2013-07-14 12:26:00,79.2,45.1,29.97,WNW,286,12.5,16.3,30,0.00,,---,0.00,VWS V14.01,2013-07-14 10:26:00,
2013-07-14 12:31:00,79.2,45.1,29.97,West,277,13.4,18.1,30,0.00,,---,0.00,VWS V14.01,2013-07-14 10:31:00,
2013-07-14 12:36:00,79.2,45.1,29.97,SE,131,6.3,10.1,30,0.00,,---,0.00,VWS V14.01,2013-07-14 10:36:00,
2013-07-14 12:41:00,79.0,44.9,29.97,WNW,282,17.7,17.7,30,0.00,,---,0.00,VWS V14.01,2013-07-14 10:41:00,
2013-07-14 12:47:00,79.0,44.9,29.97,West,265,10.1,14.3,30,0.00,,---,0.00,VWS V14.01,2013-07-14 10:47:00,
2013-07-14 12:52:00,79.0,44.9,29.97,WNW,298,12.1,14.8,30,0.00,,---,0.00,VWS V14.01,2013-07-14 10:52:00,
2013-07-14 12:57:00,79.0,44.9,29.97,NW,306,12.1,13.0,30,0.00,,---,0.00,VWS V14.01,2013-07-14 10:57:00,
2013-07-14 13:02:00,78.6,44.6,29.97,WNW,291,11.2,12.1,30,0.00,,---,0.00,VWS V14.01,2013-07-14 11:02:00,
2013-07-14 13:07:00,79.0,44.9,29.97,WSW,240,8.3,13.0,30,0.00,,---,0.00,VWS V14.01,2013-07-14 11:07:00,
2013-07-14 13:12:00,79.0,44.9,29.97,NW,309,9.6,9.6,30,0.00,,---,0.00,VWS V14.01,2013-07-14 11:12:00,
2013-07-14 13:17:00,79.2,45.1,29.97,WNW,288,16.3,18.1,30,0.00,,---,0.00,VWS V14.01,2013-07-14 11:17:00,
2013-07-14 13:22:00,79.2,45.1,29.97,WNW,298,11.2,12.5,30,0.00,,---,0.00,VWS V14.01,2013-07-14 11:22:00,
2013-07-14 13:27:00,78.8,44.8,29.97,WNW,287,3.1,11.0,30,0.00,,---,0.00,VWS V14.01,2013-07-14 11:27:00,
2013-07-14 13:32:00,78.6,44.6,29.97,WNW,290,9.6,11.2,30,0.00,,---,0.00,VWS V14.01,2013-07-14 11:32:00,
2013-07-14 13:37:00,78.6,45.5,29.97,WNW,292,9.6,15.4,31,0.00,,---,0.00,VWS V14.01,2013-07-14 11:37:00,
2013-07-14 13:42:00,78.8,44.8,29.97,West,273,11.0,13.9,30,0.00,,---,0.00,VWS V14.01,2013-07-14 11:42:00,
2013-07-14 13:47:00,79.0,44.9,29.97,WNW,290,15.2,17.7,30,0.00,,---,0.00,VWS V14.01,2013-07-14 11:47:00,
2013-07-14 13:52:00,79.0,44.9,29.97,WNW,284,11.6,13.0,30,0.00,,---,0.00,VWS V14.01,2013-07-14 11:52:00,
2013-07-14 13:57:00,79.0,45.8,29.97,WNW,282,11.0,14.8,31,0.00,,---,0.00,VWS V14.01,2013-07-14 11:57:00,
2013-07-14 14:02:00,78.6,45.5,29.97,WNW,284,11.0,14.3,31,0.00,,---,0.00,VWS V14.01,2013-07-14 12:02:00,
2013-07-14 14:07:00,79.0,45.8,29.97,West,277,13.0,15.2,31,0.00,,---,0.00,VWS V14.01,2013-07-14 12:07:00,
2013-07-14 14:12:00,79.2,46.0,29.97,WNW,290,11.6,14.8,31,0.00,,---,0.00,VWS V14.01,2013-07-14 12:12:00,
2013-07-14 14:17:00,79.3,46.1,29.97,West,281,11.0,14.8,31,0.00,,---,0.00,VWS V14.01,2013-07-14 12:17:00,
2013-07-14 14:22:00,79.5,46.3,29.97,WNW,284,11.0,11.0,31,0.00,,---,0.00,VWS V14.01,2013-07-14 12:22:00,
2013-07-14 14:27:00,79.7,46.4,29.97,WNW,293,11.0,15.4,31,0.00,,---,0.00,VWS V14.01,2013-07-14 12:27:00,
2013-07-14 14:32:00,79.5,46.3,29.97,West,278,10.5,16.8,31,0.00,,---,0.00,VWS V14.01,2013-07-14 12:32:00,
2013-07-14 14:37:00,79.3,46.1,29.97,West,276,10.1,14.3,31,0.00,,---,0.00,VWS V14.01,2013-07-14 12:37:00,
2013-07-14 14:42:00,79.2,46.0,29.97,WNW,296,11.0,11.6,31,0.00,,---,0.00,VWS V14.01,2013-07-14 12:42:00,
2013-07-14 14:47:00,79.2,46.8,29.97,West,281,12.5,13.0,32,0.00,,---,0.00,VWS V14.01,2013-07-14 12:47:00,
2013-07-14 14:52:00,79.3,47.0,29.97,West,277,9.6,11.0,32,0.00,,---,0.00,VWS V14.01,2013-07-14 12:52:00,
2013-07-14 14:57:00,79.7,47.3,29.97,WNW,291,13.9,13.9,32,0.00,,---,0.00,VWS V14.01,2013-07-14 12:57:00,
2013-07-14 15:02:00,79.9,46.6,29.97,WNW,286,10.5,13.4,31,0.00,,---,0.00,VWS V14.01,2013-07-14 13:02:00,
2013-07-14 15:07:00,79.7,47.3,29.97,WNW,291,11.2,14.8,32,0.00,,---,0.00,VWS V14.01,2013-07-14 13:07:00,
2013-07-14 15:12:00,79.9,47.4,29.97,NW,312,5.4,11.0,32,0.00,,---,0.00,VWS V14.01,2013-07-14 13:12:00,
2013-07-14 15:17:00,79.7,47.3,29.97,West,277,12.1,14.8,32,0.00,,---,0.00,VWS V14.01,2013-07-14 13:17:00,
2013-07-14 15:22:00,79.9,47.4,29.97,WNW,287,13.4,15.4,32,0.00,,---,0.00,VWS V14.01,2013-07-14 13:22:00,
2013-07-14 15:27:00,79.9,46.6,29.97,West,265,13.9,14.3,31,0.00,,---,0.00,VWS V14.01,2013-07-14 13:27:00,
2013-07-14 15:32:00,79.9,46.6,29.97,WNW,284,13.9,19.0,31,0.00,,---,0.00,VWS V14.01,2013-07-14 13:32:00,
2013-07-14 15:37:00,79.9,46.6,29.97,WNW,291,12.1,12.1,31,0.00,,---,0.00,VWS V14.01,2013-07-14 13:37:00,
2013-07-14 15:42:00,79.9,46.6,29.97,NW,304,12.1,12.1,31,0.00,,---,0.00,VWS V14.01,2013-07-14 13:42:00,
2013-07-14 15:47:00,79.7,46.4,29.97,West,279,6.3,6.3,31,0.00,,---,0.00,VWS V14.01,2013-07-14 13:47:00,
2013-07-14 15:52:00,79.9,46.6,29.97,WNW,288,12.1,12.1,31,0.00,,---,0.00,VWS V14.01,2013-07-14 13:52:00,
2013-07-14 15:57:00,80.1,46.7,29.97,WNW,295,5.4,5.4,31,0.00,,---,0.00,VWS V14.01,2013-07-14 13:57:00,
2013-07-14 16:02:00,79.9,46.6,29.97,WNW,297,9.2,9.2,31,0.00,,---,0.00,VWS V14.01,2013-07-14 14:02:00,
2013-07-14 16:07:00,79.9,46.6,29.97,NW,306,8.7,10.5,31,0.00,,---,0.00,VWS V14.01,2013-07-14 14:07:00,
2013-07-14 16:12:00,79.9,46.6,29.94,WNW,286,10.5,13.4,31,0.00,,---,0.00,VWS V14.01,2013-07-14 14:12:00,
2013-07-14 16:17:00,79.9,46.6,29.94,West,278,14.8,14.8,31,0.00,,---,0.00,VWS V14.01,2013-07-14 14:17:00,
2013-07-14 16:22:00,79.7,46.4,29.94,West,261,12.5,12.5,31,0.00,,---,0.00,VWS V14.01,2013-07-14 14:22:00,
2013-07-14 16:27:00,79.5,46.3,29.97,West,277,12.1,12.1,31,0.00,,---,0.00,VWS V14.01,2013-07-14 14:27:00,
2013-07-14 16:32:00,79.2,46.0,29.97,WNW,290,9.6,11.2,31,0.00,,---,0.00,VWS V14.01,2013-07-14 14:32:00,
2013-07-14 16:37:00,79.2,46.0,29.97,WNW,299,8.7,9.2,31,0.00,,---,0.00,VWS V14.01,2013-07-14 14:37:00,
2013-07-14 16:42:00,79.2,46.0,29.94,West,279,10.5,13.0,31,0.00,,---,0.00,VWS V14.01,2013-07-14 14:42:00,
2013-07-14 16:47:00,79.3,46.1,29.94,WNW,288,16.3,16.3,31,0.00,,---,0.00,VWS V14.01,2013-07-14 14:47:00,
2013-07-14 16:52:00,79.0,45.8,29.94,West,267,11.0,12.1,31,0.00,,---,0.00,VWS V14.01,2013-07-14 14:52:00,
2013-07-14 16:57:00,79.2,46.8,29.97,West,272,12.1,12.1,32,0.00,,---,0.00,VWS V14.01,2013-07-14 14:57:00,
2013-07-14 17:02:00,79.3,46.1,29.97,West,272,9.2,9.2,31,0.00,,---,0.00,VWS V14.01,2013-07-14 15:02:00,
2013-07-14 17:07:00,79.2,46.8,29.97,WNW,287,13.9,14.8,32,0.00,,---,0.00,VWS V14.01,2013-07-14 15:07:00,
2013-07-14 17:12:00,79.3,47.0,29.94,West,277,8.3,11.0,32,0.00,,---,0.00,VWS V14.01,2013-07-14 15:12:00,
2013-07-14 17:17:00,79.3,47.0,29.94,WNW,297,12.5,15.2,32,0.00,,---,0.00,VWS V14.01,2013-07-14 15:17:00,
2013-07-14 17:22:00,79.5,46.3,29.94,West,266,6.9,8.3,31,0.00,,---,0.00,VWS V14.01,2013-07-14 15:22:00,
2013-07-14 17:27:00,79.3,46.1,29.94,WNW,293,7.4,9.6,31,0.00,,---,0.00,VWS V14.01,2013-07-14 15:27:00,
2013-07-14 17:32:00,79.5,46.3,29.94,West,272,8.3,8.3,31,0.00,,---,0.00,VWS V14.01,2013-07-14 15:32:00,
2013-07-14 17:37:00,79.5,46.3,29.94,West,272,11.0,11.0,31,0.00,,---,0.00,VWS V14.01,2013-07-14 15:37:00,
2013-07-14 17:42:00,79.5,46.3,29.94,WNW,292,7.8,11.0,31,0.00,,---,0.00,VWS V14.01,2013-07-14 15:42:00,
2013-07-14 17:47:00,79.5,46.3,29.94,West,278,6.7,9.2,31,0.00,,---,0.00,VWS V14.01,2013-07-14 15:47:00,
2013-07-14 17:52:00,79.3,46.1,29.94,West,273,9.2,9.2,31,0.00,,---,0.00,VWS V14.01,2013-07-14 15:52:00,
2013-07-14 17:57:00,79.5,46.3,29.94,West,276,8.7,9.2,31,0.00,,---,0.00,VWS V14.01,2013-07-14 15:57:00,
2013-07-14 18:02:00,79.3,46.1,29.94,WNW,289,9.2,13.4,31,0.00,,---,0.00,VWS V14.01,2013-07-14 16:02:00,
2013-07-14 18:07:00,79.2,46.0,29.94,WNW,286,10.1,10.1,31,0.00,,---,0.00,VWS V14.01,2013-07-14 16:07:00,
2013-07-14 18:12:00,79.2,46.8,29.94,WNW,286,7.8,9.2,32,0.00,,---,0.00,VWS V14.01,2013-07-14 16:12:00,
2013-07-14 18:17:00,79.2,46.8,29.94,WNW,291,8.7,8.7,32,0.00,,---,0.00,VWS V14.01,2013-07-14 16:17:00,
2013-07-14 18:22:00,79.2,46.8,29.94,WNW,292,9.2,11.6,32,0.00,,---,0.00,VWS V14.01,2013-07-14 16:22:00,
2013-07-14 18:27:00,79.0,46.6,29.94,WNW,289,9.2,9.2,32,0.00,,---,0.00,VWS V14.01,2013-07-14 16:27:00,
2013-07-14 18:32:00,79.0,46.6,29.94,West,280,4.5,4.9,32,0.00,,---,0.00,VWS V14.01,2013-07-14 16:32:00,
2013-07-14 18:37:00,79.2,47.6,29.94,WNW,286,6.3,6.3,33,0.00,,---,0.00,VWS V14.01,2013-07-14 16:37:00,
2013-07-14 18:42:00,79.2,47.6,29.94,WNW,284,13.0,14.3,33,0.00,,---,0.00,VWS V14.01,2013-07-14 16:42:00,
2013-07-14 18:47:00,79.0,47.5,29.94,WNW,301,9.2,13.0,33,0.00,,---,0.00,VWS V14.01,2013-07-14 16:47:00,
2013-07-14 18:52:00,78.8,47.3,29.94,WNW,283,8.7,10.1,33,0.00,,---,0.00,VWS V14.01,2013-07-14 16:52:00,
2013-07-14 18:57:00,78.6,47.1,29.94,WNW,296,11.6,11.6,33,0.00,,---,0.00,VWS V14.01,2013-07-14 16:57:00,
2013-07-14 19:02:00,78.4,47.8,29.94,West,273,8.7,10.1,34,0.00,,---,0.00,VWS V14.01,2013-07-14 17:02:00,
2013-07-14 19:07:00,78.4,47.8,29.94,West,279,9.6,11.6,34,0.00,,---,0.00,VWS V14.01,2013-07-14 17:07:00,
2013-07-14 19:12:00,78.3,47.6,29.94,West,279,8.3,10.5,34,0.00,,---,0.00,VWS V14.01,2013-07-14 17:12:00,
2013-07-14 19:17:00,78.1,48.2,29.94,WNW,288,6.7,8.3,35,0.00,,---,0.00,VWS V14.01,2013-07-14 17:17:00,
2013-07-14 19:22:00,78.1,48.2,29.94,WNW,291,4.5,6.9,35,0.00,,---,0.00,VWS V14.01,2013-07-14 17:22:00,
2013-07-14 19:27:00,77.9,48.1,29.94,WNW,288,6.7,6.7,35,0.00,,---,0.00,VWS V14.01,2013-07-14 17:27:00,
2013-07-14 19:32:00,77.7,48.7,29.94,WNW,286,5.4,5.8,36,0.00,,---,0.00,VWS V14.01,2013-07-14 17:32:00,
2013-07-14 19:37:00,77.7,48.7,29.94,West,270,4.9,6.7,36,0.00,,---,0.00,VWS V14.01,2013-07-14 17:37:00,
2013-07-14 19:42:00,77.5,49.2,29.94,WNW,284,6.7,6.7,37,0.00,,---,0.00,VWS V14.01,2013-07-14 17:42:00,
2013-07-14 19:47:00,77.4,49.1,29.94,NW,306,6.3,8.3,37,0.00,,---,0.00,VWS V14.01,2013-07-14 17:47:00,
2013-07-14 19:52:00,77.2,48.9,29.94,WNW,282,7.8,8.3,37,0.00,,---,0.00,VWS V14.01,2013-07-14 17:52:00,
2013-07-14 19:57:00,77.0,49.5,29.94,WNW,287,7.8,8.7,38,0.00,,---,0.00,VWS V14.01,2013-07-14 17:57:00,
2013-07-14 20:02:00,76.8,49.3,29.94,West,281,5.4,7.8,38,0.00,,---,0.00,VWS V14.01,2013-07-14 18:02:00,
2013-07-14 20:07:00,76.6,49.8,29.94,West,279,6.3,8.3,39,0.00,,---,0.00,VWS V14.01,2013-07-14 18:07:00,
2013-07-14 20:12:00,76.3,49.5,29.97,West,274,5.8,6.7,39,0.00,,---,0.00,VWS V14.01,2013-07-14 18:12:00,
2013-07-14 20:17:00,76.1,50.0,29.97,West,280,4.9,6.9,40,0.00,,---,0.00,VWS V14.01,2013-07-14 18:17:00,
2013-07-14 20:22:00,75.9,49.9,29.97,West,275,4.9,5.4,40,0.00,,---,0.00,VWS V14.01,2013-07-14 18:22:00,
2013-07-14 20:27:00,75.9,50.5,29.97,WNW,283,6.3,6.9,41,0.00,,---,0.00,VWS V14.01,2013-07-14 18:27:00,
2013-07-14 20:32:00,75.9,50.5,29.97,West,280,4.0,5.4,41,0.00,,---,0.00,VWS V14.01,2013-07-14 18:32:00,
2013-07-14 20:37:00,75.7,50.4,29.97,West,275,4.5,5.8,41,0.00,,---,0.00,VWS V14.01,2013-07-14 18:37:00,
2013-07-14 20:42:00,75.4,50.1,29.94,West,273,5.4,5.4,41,0.00,,---,0.00,VWS V14.01,2013-07-14 18:42:00,
2013-07-14 20:47:00,75.2,49.9,29.94,West,275,4.9,5.4,41,0.00,,---,0.00,VWS V14.01,2013-07-14 18:47:00,
2013-07-14 20:52:00,75.0,50.4,29.94,West,273,3.6,4.5,42,0.00,,---,0.00,VWS V14.01,2013-07-14 18:52:00,
2013-07-14 20:57:00,74.8,50.2,29.97,West,272,0.0,4.5,42,0.00,,---,0.00,VWS V14.01,2013-07-14 18:57:00,
2013-07-14 21:02:00,74.8,50.2,29.97,West,272,4.0,4.0,42,0.00,,---,0.00,VWS V14.01,2013-07-14 19:02:00,
2013-07-14 21:07:00,75.0,50.4,29.97,West,272,0.0,3.6,42,0.00,,---,0.00,VWS V14.01,2013-07-14 19:07:00,
2013-07-14 21:12:00,75.0,50.4,29.97,West,273,3.6,4.9,42,0.00,,---,0.00,VWS V14.01,2013-07-14 19:12:00,
2013-07-14 21:17:00,74.7,50.7,29.97,West,273,0.0,3.1,43,0.00,,---,0.00,VWS V14.01,2013-07-14 19:17:00,
2013-07-14 21:22:00,74.7,50.7,29.97,West,273,0.0,2.7,43,0.00,,---,0.00,VWS V14.01,2013-07-14 19:22:00,
2013-07-14 21:27:00,74.5,50.5,29.97,West,273,0.0,3.1,43,0.00,,---,0.00,VWS V14.01,2013-07-14 19:27:00,
2013-07-14 21:33:00,74.3,50.4,29.97,West,273,0.0,4.5,43,0.00,,---,0.00,VWS V14.01,2013-07-14 19:33:00,
2013-07-14 21:38:00,73.9,50.7,29.97,West,273,0.0,0.0,44,0.00,,---,0.00,VWS V14.01,2013-07-14 19:38:00,
2013-07-14 21:43:00,73.4,50.2,29.97,West,273,0.0,0.0,44,0.00,,---,0.00,VWS V14.01,2013-07-14 19:43:00,
2013-07-14 21:48:00,73.2,50.0,29.97,West,273,0.0,0.0,44,0.00,,---,0.00,VWS V14.01,2013-07-14 19:48:00,
2013-07-14 21:53:00,72.9,50.3,29.97,West,273,0.0,0.0,45,0.00,,---,0.00,VWS V14.01,2013-07-14 19:53:00,
2013-07-14 21:58:00,72.9,50.9,29.97,West,273,2.7,2.7,46,0.00,,---,0.00,VWS V14.01,2013-07-14 19:58:00,
2013-07-14 22:03:00,73.0,51.1,29.97,West,273,0.0,3.1,46,0.00,,---,0.00,VWS V14.01,2013-07-14 20:03:00,
2013-07-14 22:08:00,73.0,51.1,29.97,West,273,3.6,3.6,46,0.00,,---,0.00,VWS V14.01,2013-07-14 20:08:00,
2013-07-14 22:13:00,72.5,51.2,29.97,West,273,0.0,2.7,47,0.00,,---,0.00,VWS V14.01,2013-07-14 20:13:00,
2013-07-14 22:18:00,72.1,50.8,29.97,West,273,0.0,3.1,47,0.00,,---,0.00,VWS V14.01,2013-07-14 20:18:00,
2013-07-14 22:23:00,72.0,50.7,29.97,West,273,3.1,3.6,47,0.00,,---,0.00,VWS V14.01,2013-07-14 20:23:00,
2013-07-14 22:28:00,71.6,50.9,29.97,West,273,0.0,4.0,48,0.00,,---,0.00,VWS V14.01,2013-07-14 20:28:00,
2013-07-14 22:33:00,71.4,50.7,29.97,West,273,2.7,3.6,48,0.00,,---,0.00,VWS V14.01,2013-07-14 20:33:00,
2013-07-14 22:38:00,71.2,51.1,29.97,West,271,4.0,4.5,49,0.00,,---,0.00,VWS V14.01,2013-07-14 20:38:00,
2013-07-14 22:43:00,71.2,51.1,29.97,West,271,0.0,3.6,49,0.00,,---,0.00,VWS V14.01,2013-07-14 20:43:00,
2013-07-14 22:48:00,71.1,51.0,29.97,West,271,0.0,3.1,49,0.00,,---,0.00,VWS V14.01,2013-07-14 20:48:00,
2013-07-14 22:53:00,70.9,50.8,29.97,West,271,0.0,0.0,49,0.00,,---,0.00,VWS V14.01,2013-07-14 20:53:00,
2013-07-14 22:58:00,70.7,51.2,29.97,West,266,0.0,0.0,50,0.00,,---,0.00,VWS V14.01,2013-07-14 20:58:00,
2013-07-14 23:03:00,70.5,51.0,29.97,West,266,0.0,0.0,50,0.00,,---,0.00,VWS V14.01,2013-07-14 21:03:00,
2013-07-14 23:08:00,70.5,51.5,29.97,West,266,0.0,0.0,51,0.00,,---,0.00,VWS V14.01,2013-07-14 21:08:00,
2013-07-14 23:13:00,70.3,51.4,29.97,West,266,0.0,0.0,51,0.00,,---,0.00,VWS V14.01,2013-07-14 21:13:00,
2013-07-14 23:18:00,70.2,51.2,29.97,West,266,0.0,0.0,51,0.00,,---,0.00,VWS V14.01,2013-07-14 21:18:00,
2013-07-14 23:23:00,70.0,51.6,29.97,West,266,0.0,0.0,52,0.00,,---,0.00,VWS V14.01,2013-07-14 21:23:00,
2013-07-14 23:28:00,70.0,51.6,29.97,West,266,0.0,0.0,52,0.00,,---,0.00,VWS V14.01,2013-07-14 21:28:00,
2013-07-14 23:33:00,69.8,51.4,29.97,West,266,0.0,0.0,52,0.00,,---,0.00,VWS V14.01,2013-07-14 21:33:00,
2013-07-14 23:38:00,69.6,51.2,29.97,West,266,0.0,0.0,52,0.00,,---,0.00,VWS V14.01,2013-07-14 21:38:00,
2013-07-14 23:43:00,69.4,51.6,29.97,West,266,0.0,0.0,53,0.00,,---,0.00,VWS V14.01,2013-07-14 21:43:00,
2013-07-14 23:48:00,69.4,51.6,29.97,West,276,0.0,3.6,53,0.00,,---,0.00,VWS V14.01,2013-07-14 21:48:00,
2013-07-14 23:53:00,69.6,51.8,29.97,West,279,6.3,6.3,53,0.00,,---,0.00,VWS V14.01,2013-07-14 21:53:00,
2013-07-14 23:58:00,69.6,51.2,29.97,West,268,5.4,6.3,52,0.00,,---,0.00,VWS V14.01,2013-07-14 21:58:00,